This is the latest recevied weather packets stored in our database for station/object N8QF. If no packets are shown the sender has not sent any weather packets the latest 10 day(s).
| Time | Temp. | Humidity | Pressure | Rain* | Wind** | Luminosity | Snow |
|---|---|---|---|---|---|---|---|
| 1777174440 | 14.44° C | 83% | 1013.4 hPa | 0.25 mm | - | - | - |
| 1777174139 | 14.44° C | 83% | 1013.4 hPa | 0.25 mm | - | - | - |
| 1777173839 | 14.44° C | 83% | 1013.3 hPa | 0.25 mm | - | - | - |
| 1777173539 | 15° C | 83% | 1013.3 hPa | 0.25 mm | - | - | - |
| 1777173237 | 15° C | 83% | 1013.2 hPa | 0.25 mm | - | - | - |
| 1777172937 | 15° C | 83% | 1013.2 hPa | 0.25 mm | - | - | - |
| 1777172636 | 15° C | 82% | 1013.2 hPa | 0.25 mm | - | - | - |
| 1777172336 | 15.56° C | 81% | 1013.1 hPa | 0.25 mm | - | - | - |
| 1777172036 | 15.56° C | 81% | 1013 hPa | 0.25 mm | - | - | - |
| 1777171735 | 16.11° C | 81% | 1012.9 hPa | 0.25 mm | - | - | - |
| 1777171433 | 16.11° C | 80% | 1012.8 hPa | 0.25 mm | - | - | - |
| 1777171132 | 16.67° C | 80% | 1012.8 hPa | 0.25 mm | - | - | - |
| 1777170832 | 16.67° C | 80% | 1012.8 hPa | 0.25 mm | - | - | - |
| 1777170532 | 16.67° C | 80% | 1012.8 hPa | 0.25 mm | - | - | - |
| 1777170232 | 16.67° C | 79% | 1012.6 hPa | 0.25 mm | - | - | - |
| 1777169931 | 17.22° C | 79% | 1012.4 hPa | 0.25 mm | - | - | - |
| 1777169631 | 17.22° C | 78% | 1012.3 hPa | 0.25 mm | - | - | - |
| 1777169331 | 17.22° C | 78% | 1012.3 hPa | 0.25 mm | - | - | - |
| 1777169031 | 17.22° C | 76% | 1012.2 hPa | 0.25 mm | - | - | - |
| 1777168731 | 17.22° C | 75% | 1012.2 hPa | 0.25 mm | - | - | - |
| 1777168430 | 17.22° C | 74% | 1012 hPa | 0.25 mm | - | - | - |
| 1777168130 | 16.67° C | 74% | 1012 hPa | 0.25 mm | - | - | - |
| 1777167830 | 16.67° C | 72% | 1011.7 hPa | 0.25 mm | - | - | - |
| 1777167529 | 17.22° C | 70% | 1011.6 hPa | 0.25 mm | - | - | - |
| 1777167229 | 17.22° C | 70% | 1011.5 hPa | 0.25 mm | - | - | - |
* Rain since midnight (hover to see other rain measurements)
** Current wind speed in m/s (hover to see current wind gust speed)